Wind_Speed
10 9 10 11 12 12 12 17 19 19 19 21 21 22 22 23 25 27 26 25 25 24 21 21 21 18 19 17 14 13 13 9 16 16 14 12 7 6 7 7 6 9 10
8 7 7 10 12 13 14 17 19 19 20 18 19 20 18 20 20 21 23 22 22 21 19 18 17 16 18 16 12 10 11 11 13 15 14 11 8 8 7 8 9 11 11
11 8 7 8 11 15 15 16 18 18 20 17 18 19 18 18 19 17 17 17 19 19 16 15 16 12 14 12 10 8 12 15 12 13 16 14 12 10 9 10 13 13 11
15 10 9 10 12 15 17 18 17 17 19 19 17 16 16 14 14 15 14 14 15 16 16 15 15 14 13 12 11 10 12 13 12 15 16 15 13 11 12 13 14 14 13
17 13 12 13 16 16 17 18 19 18 17 19 18 15 13 11 10 10 11 11 12 14 14 13 13 13 12 11 10 10 11 11 12 14 15 16 15 15 15 14 12 13 14
18 15 15 16 19 18 17 18 19 18 17 16 16 14 13 11 11 10 9 9 10 10 10 11 11 10 10 9 10 10 11 12 14 17 18 18 17 17 16 14 12 12 13
19 18 17 18 19 19 18 18 18 18 17 17 15 13 12 12 13 13 13 12 12 13 12 11 11 11 10 9 9 10 11 13 14 16 18 19 19 18 16 14 12 12 12
21 21 19 19 19 20 19 18 18 17 17 16 15 14 13 15 15 14 14 13 13 12 12 11 10 8 7 8 9 10 12 14 16 18 19 19 18 17 15 13 13 13 14
26 23 22 21 21 20 20 19 18 18 17 16 14 14 13 12 12 13 12 11 10 9 8 8 8 8 7 8 9 11 12 14 16 17 18 17 16 15 15 15 15 15 13
31 25 23 22 22 22 21 20 19 18 16 15 13 11 10 9 9 10 10 11 11 11 11 11 12 11 12 11 12 13 14 14 15 16 17 17 17 16 16 15 15 13 12
35 29 26 25 24 23 23 21 19 17 16 14 13 13 13 13 13 13 14 14 14 14 15 15 16 16 17 17 17 16 15 17 18 19 20 20 19 18 17 16 14 12 11
40 35 31 29 28 27 26 25 23 20 18 18 17 18 18 19 19 20 20 20 20 22 22 22 22 23 24 25 24 21 21 22 23 23 24 24 22 20 17 15 12 11 11
45 41 37 33 32 30 30 30 28 26 25 24 24 24 24 25 26 26 27 28 29 30 30 29 29 30 30 30 30 29 28 28 28 29 27 26 24 20 18 16 13 13 13
50 46 42 38 37 37 35 32 31 30 30 31 30 30 29 29 30 31 33 34 35 36 37 37 36 36 37 36 35 35 34 34 33 33 30 25 24 25 25 24 19 16 18
52 50 45 42 38 41 40 39 38 33 28 30 29 29 30 29 26 26 30 34 37 39 38 41 42 43 41 40 39 37 35 36 37 36 34 30 28 28 27 28 28 18 25
53 51 48 45 44 40 42 42 42 38 33 30 28 32 32 31 30 30 30 29 27 27 32 38 40 41 42 42 42 41 39 38 36 36 36 33 31 31 30 38 31 20 24
55 50 47 45 45 44 45 43 46 41 46 44 42 43 41 42 43 42 40 38 33 25 26 30 35 39 40 41 43 45 44 41 37 36 36 35 34 34 38 39 31 25 25
53 52 48 44 43 43 41 46 44 42 40 37 40 42 46 46 48 45 37 34 37 38 33 30 34 36 38 38 38 38 40 40 38 37 36 35 37 36 40 41 37 32 29
51 51 48 44 43 40 38 33 37 38 41 40 36 36 34 33 30 25 23 38 44 44 42 38 35 37 40 37 33 32 32 34 33 33 35 37 40 40 42 42 42 30 27
45 45 44 43 41 39 39 34 35 32 32 31 29 27 19 19 25 33 26 31 41 44 39 37 34 30 28 26 25 26 27 27 28 29 31 33 37 42 40 36 30 23 30
40 43 42 41 39 34 33 26 23 18 12 10 12 17 20 22 18 10 8 12 12 14 18 19 19 20 19 18 18 21 25 29 32 32 33 34 35 39 34 39 30 24 27
38 40 36 35 25 21 21 19 16 8 3 7 13 6 4 4 8 5 3 5 6 9 13 14 14 14 15 16 19 20 19 23 22 24 30 31 32 31 38 36 30 24 24
26 26 25 24 22 13 6 11 12 7 12 20 9 9 8 5 2 1 3 6 9 10 11 11 11 12 13 16 18 17 17 18 20 20 22 28 32 32 32 26 30 25 22
16 18 16 14 13 9 8 12 9 11 16 18 13 10 6 4 4 4 5 6 5 7 10 9 9 10 10 13 14 14 16 19 19 20 22 24 26 27 26 19 27 31 18
8 8 21 29 24 22 23 25 26 22 17 13 11 10 9 7 4 3 6 10 12 14 13 10 9 9 11 15 18 17 18 17 15 15 16 17 17 18 23 36 26 15 17
27 33 31 29 31 32 29 26 22 17 14 13 11 10 8 7 6 8 10 11 12 13 13 13 13 13 14 15 15 15 15 16 16 16 17 20 22 22 15 10 8 15 19
Wind_Direction
141 142 149 151 148 142 124 125 131 125 120 125 120 131 133 134 136 130 126 131 130 131 134 134 129 127 125 127 136 161 152 151 155 154 153 162 170 170 200 226 258 272 284
148 145 150 150 157 153 141 132 139 141 130 131 135 131 139 149 147 144 142 140 136 138 141 148 149 152 149 143 142 150 167 167 166 165 167 183 190 180 211 243 271 280 288
170 173 164 163 162 167 159 149 144 143 146 142 140 138 141 144 156 162 161 157 156 152 154 152 140 155 150 154 164 165 178 182 191 192 189 196 194 214 239 270 286 283 277
180 183 170 160 161 164 167 164 159 155 153 160 154 145 149 154 158 159 161 166 171 174 176 184 185 189 199 212 219 216 210 209 203 207 203 204 220 239 258 268 266 268 266
188 185 170 159 158 160 165 168 172 173 171 171 178 176 180 186 181 179 179 180 182 187 190 194 197 205 210 218 223 224 223 234 228 219 223 230 237 248 263 262 250 248 255
196 184 173 162 160 159 161 168 174 178 181 183 187 194 195 192 189 181 178 173 168 168 169 168 174 183 189 197 208 217 222 227 232 234 235 243 251 256 260 255 249 239 234
191 183 177 168 163 163 160 163 166 167 170 173 175 173 163 157 158 157 156 158 157 156 155 154 159 165 173 181 194 210 220 228 234 248 249 249 252 255 253 252 251 248 247
191 184 180 174 169 171 168 164 161 160 160 163 164 164 160 154 153 152 149 148 148 152 154 153 151 154 165 184 203 214 222 228 235 241 244 248 251 253 257 259 257 258 254
194 190 185 180 175 174 174 170 165 162 161 161 163 163 163 164 162 163 163 162 162 164 169 174 181 185 193 210 222 226 231 234 235 236 238 246 253 258 260 257 254 251 246
197 196 193 188 186 183 178 176 173 169 165 167 169 173 181 189 191 192 198 204 206 204 208 215 223 227 232 240 246 249 250 253 255 255 256 254 254 254 254 252 253 251 252
202 200 199 197 195 193 188 187 184 183 185 188 193 203 210 215 220 224 228 232 236 240 245 249 253 253 254 251 251 254 256 255 256 255 254 255 256 256 252 252 248 250 259
205 205 205 207 203 199 199 197 199 204 209 214 219 225 229 233 235 239 243 249 253 255 259 262 263 262 262 262 259 255 254 251 250 250 252 252 255 256 256 252 256 267 263
208 208 210 213 214 213 207 206 206 213 221 229 237 241 245 247 248 248 250 252 254 256 261 261 260 260 261 261 262 260 256 253 252 250 250 252 255 253 247 248 253 278 272
210 211 212 216 218 220 218 217 218 220 225 231 238 245 251 254 255 257 257 257 258 260 263 265 263 262 263 264 260 259 261 260 258 256 254 253 248 241 242 241 238 257 259
212 212 213 218 223 223 224 226 228 233 243 246 244 248 250 255 265 273 271 270 271 273 272 270 270 267 266 265 266 266 265 263 260 261 259 253 247 246 248 230 227 255 255
213 214 214 218 222 228 230 231 237 242 248 255 260 261 266 273 278 279 281 283 281 276 269 268 270 272 272 273 273 273 271 268 267 263 260 255 248 246 233 219 228 242 248
216 215 216 220 226 228 233 239 239 246 247 252 257 261 266 270 272 276 283 290 293 283 265 271 272 274 275 277 277 275 274 276 275 265 262 258 247 242 226 225 243 269 243
219 219 218 218 227 231 236 241 248 253 252 255 260 262 264 267 269 270 278 290 291 286 281 286 281 278 283 286 284 281 275 273 270 268 262 254 242 242 232 236 262 263 237
221 221 221 223 226 235 243 249 242 247 247 249 260 269 279 283 286 298 266 275 279 285 279 284 286 291 293 292 293 287 279 275 275 272 266 256 246 242 247 257 269 228 243
224 224 222 225 228 229 239 250 247 246 250 257 261 258 262 282 275 282 271 242 261 281 286 284 286 289 292 293 291 289 286 283 281 277 269 260 253 246 251 253 257 232 240
222 221 223 221 225 234 231 229 224 217 224 235 241 256 273 276 283 264 257 258 265 278 282 285 286 290 299 304 304 297 291 290 287 289 275 262 254 248 257 271 246 236 249
218 218 218 222 218 203 207 210 199 194 27 341 299 230 199 153 143 163 213 262 279 288 290 290 292 296 299 307 309 299 287 288 291 289 278 262 258 257 282 276 232 235 249
201 198 191 177 174 169 234 281 252 264 305 312 223 178 147 124 119 230 295 312 311 312 312 314 315 313 309 312 318 317 312 309 309 294 274 270 272 282 279 274 233 233 242
186 176 173 193 200 214 230 234 213 202 184 159 154 134 110 84 68 65 48 22 10 12 1 355 356 345 342 334 334 328 315 303 294 285 281 280 275 276 269 266 279 237 252
192 215 192 198 174 165 155 136 130 131 134 130 115 100 109 108 113 42 16 8 1 355 357 356 352 344 332 324 322 316 309 302 286 287 287 284 281 271 256 286 271 229 243
187 186 176 162 147 141 138 134 131 129 121 114 108 105 95 81 49 19 19 26 33 32 21 15 6 357 351 349 349 349 344 339 324 306 286 281 287 282 266 254 247 244 248
Height
1524 1524 1524 1525 1526 1527 1528 1529 1530 1531 1532 1534 1536 1537 1539 1540 1542 1543 1544 1546 1548 1550 1553 1556 1558 1560 1563 1565 1568 1571 1573 1575 1577 1580 1582 1584 1585 1586 1586 1587 1588 1588 1588
1525 1525 1525 1526 1527 1528 1530 1531 1533 1535 1537 1538 1540 1541 1542 1544 1546 1547 1549 1551 1553 1555 1557 1559 1561 1563 1565 1567 1569 1571 1573 1576 1578 1579 1581 1583 1584 1585 1585 1586 1587 1587 1585
1525 1526 1526 1527 1527 1529 1531 1533 1535 1538 1540 1541 1543 1544 1546 1547 1549 1551 1552 1554 1556 1558 1560 1562 1563 1565 1566 1568 1570 1571 1573 1576 1578 1579 1579 1582 1584 1584 1584 1584 1584 1583 1582
1526 1527 1527 1527 1528 1530 1532 1535 1537 1539 1541 1543 1545 1547 1548 1549 1551 1553 1554 1555 1557 1559 1561 1563 1564 1566 1568 1569 1570 1571 1573 1575 1576 1578 1578 1580 1581 1581 1581 1581 1581 1580 1578
1525 1527 1528 1528 1529 1531 1533 1536 1538 1540 1542 1545 1546 1548 1549 1551 1552 1553 1554 1556 1557 1559 1560 1562 1564 1566 1567 1567 1568 1570 1572 1573 1574 1575 1576 1577 1578 1578 1579 1579 1578 1577 1576
1524 1526 1528 1529 1530 1532 1534 1536 1538 1540 1542 1545 1546 1548 1550 1551 1552 1554 1555 1556 1557 1559 1560 1561 1563 1564 1565 1566 1568 1569 1570 1571 1572 1573 1574 1574 1574 1575 1575 1575 1574 1574 1573
1524 1526 1528 1529 1531 1533 1535 1537 1539 1542 1544 1546 1548 1550 1551 1553 1554 1556 1557 1559 1560 1561 1562 1563 1564 1565 1566 1567 1568 1568 1569 1570 1571 1571 1571 1571 1571 1571 1571 1570 1569 1569 1569
1523 1525 1527 1530 1532 1534 1536 1539 1541 1543 1546 1548 1550 1551 1553 1554 1556 1557 1558 1560 1561 1562 1563 1564 1565 1566 1566 1567 1567 1567 1567 1568 1568 1568 1568 1568 1567 1567 1567 1567 1567 1566 1566
1520 1523 1526 1529 1531 1534 1537 1539 1541 1544 1546 1549 1551 1553 1555 1556 1558 1559 1560 1561 1562 1563 1564 1564 1565 1566 1566 1566 1566 1566 1566 1566 1566 1566 1566 1566 1567 1566 1565 1565 1565 1565 1563
1517 1521 1525 1528 1531 1533 1536 1538 1541 1544 1547 1550 1552 1554 1556 1557 1558 1559 1560 1561 1562 1562 1563 1563 1563 1564 1564 1565 1565 1565 1565 1566 1566 1565 1565 1564 1564 1564 1564 1563 1563 1563 1562
1513 1518 1522 1525 1528 1532 1535 1539 1542 1544 1547 1549 1551 1553 1554 1556 1557 1558 1558 1559 1560 1560 1560 1561 1561 1562 1562 1562 1562 1562 1563 1563 1563 1563 1562 1562 1562 1562 1562 1561 1560 1559 1559
1507 1513 1517 1521 1525 1529 1532 1536 1540 1542 1544 1546 1548 1550 1552 1553 1554 1555 1556 1557 1558 1558 1558 1559 1559 1559 1558 1558 1558 1558 1558 1558 1557 1557 1558 1558 1558 1558 1559 1559 1558 1557 1557
1501 1507 1512 1517 1521 1525 1528 1532 1535 1538 1540 1543 1544 1546 1547 1548 1549 1550 1551 1552 1552 1552 1553 1553 1554 1553 1552 1552 1551 1552 1552 1551 1550 1549 1550 1551 1553 1554 1553 1553 1553 1554 1554
1494 1500 1506 1511 1516 1520 1524 1527 1529 1531 1534 1536 1538 1538 1539 1540 1541 1543 1543 1544 1544 1544 1544 1545 1546 1545 1544 1543 1542 1542 1542 1542 1542 1541 1542 1544 1545 1545 1545 1546 1547 1545 1548
1487 1494 1500 1505 1509 1513 1517 1520 1522 1525 1527 1527 1528 1529 1530 1531 1532 1535 1536 1537 1537 1537 1539 1537 1535 1535 1536 1537 1537 1536 1536 1535 1534 1534 1536 1537 1537 1537 1537 1537 1535 1538 1541
1480 1487 1493 1498 1503 1506 1509 1512 1515 1518 1519 1520 1521 1523 1525 1525 1527 1528 1528 1529 1531 1532 1531 1527 1527 1527 1527 1527 1527 1528 1528 1527 1526 1527 1526 1527 1529 1529 1528 1526 1527 1527 1532
1472 1480 1486 1491 1495 1499 1502 1505 1507 1510 1512 1513 1516 1517 1518 1519 1519 1521 1523 1524 1524 1524 1523 1522 1523 1523 1523 1523 1521 1520 1520 1520 1520 1519 1519 1519 1520 1520 1520 1521 1521 1520 1525
1466 1472 1478 1483 1488 1492 1495 1498 1501 1503 1504 1506 1507 1507 1508 1509 1510 1511 1516 1517 1517 1516 1512 1510 1511 1514 1514 1513 1513 1512 1512 1512 1512 1512 1511 1511 1511 1512 1514 1514 1515 1514 1517
1460 1466 1471 1477 1483 1486 1489 1491 1493 1495 1496 1498 1500 1501 1504 1504 1506 1508 1506 1500 1507 1508 1508 1505 1506 1506 1506 1505 1504 1504 1504 1504 1504 1503 1503 1502 1503 1504 1505 1506 1506 1506 1511
1453 1459 1466 1472 1477 1480 1483 1485 1486 1488 1490 1493 1494 1495 1495 1498 1498 1499 1500 1497 1498 1501 1500 1501 1501 1499 1498 1497 1497 1496 1496 1497 1496 1495 1494 1493 1494 1496 1497 1498 1497 1499 1503
1447 1453 1459 1465 1470 1474 1477 1480 1482 1483 1487 1488 1489 1488 1489 1487 1488 1492 1494 1493 1493 1494 1495 1496 1496 1494 1493 1492 1491 1490 1490 1490 1489 1489 1488 1488 1489 1491 1492 1492 1490 1494 1499
1443 1448 1452 1457 1464 1468 1471 1474 1473 1476 1481 1482 1484 1487 1486 1485 1484 1488 1490 1492 1493 1494 1494 1493 1491 1489 1489 1487 1487 1486 1484 1484 1482 1481 1481 1483 1484 1486 1485 1483 1484 1487 1492
1444 1445 1448 1452 1458 1463 1471 1472 1471 1468 1472 1477 1491 1489 1484 1485 1488 1489 1490 1492 1493 1491 1490 1489 1487 1487 1486 1484 1483 1481 1480 1479 1478 1477 1478 1479 1479 1479 1476 1476 1477 1480 1483
1449 1448 1453 1454 1456 1455 1459 1467 1465 1465 1474 1486 1493 1486 1483 1486 1488 1489 1489 1491 1491 1490 1487 1485 1484 1485 1484 1484 1482 1479 1477 1477 1477 1477 1476 1474 1473 1471 1470 1471 1473 1473 1477
1445 1450 1452 1454 1449 1450 1458 1463 1469 1477 1483 1486 1486 1484 1486 1485 1487 1489 1489 1489 1488 1487 1485 1484 1483 1482 1481 1479 1477 1474 1473 1471 1470 1470 1469 1469 1469 1468 1468 1467 1465 1467 1473
1443 1447 1455 1456 1451 1453 1456 1465 1475 1480 1481 1483 1484 1485 1486 1487 1490 1489 1487 1486 1485 1484 1483 1482 1482 1480 1477 1474 1472 1470 1469 1467 1466 1466 1466 1466 1466 1464 1463 1463 1464 1466 1468